Regional Weather Roundup
Issued by NWS

Home | Current Version | Previous Version | Text Only | Print | Product List | Glossary On
Versions: 1 2 3 4 5 6 7 8 9 10 11 12 13 14 15 16 17 18 19 20 21 22 23 24 25 26 27 28 29 30 31 32 33 34 35 36 37 38 39 40 41 42 43 44 45 46 47 48 49 50
000
ASUS45 KREV 202310
RWRNV
NEVADA REGIONAL WEATHER ROUNDUP
NATIONAL WEATHER SERVICE RENO NV
400 PM PDT WED SEP 20 2017

NOTE: "FAIR" INDICATES FEW OR NO CLOUDS BELOW 12,000 FEET WITH NO
SIGNIFICANT WEATHER AND/OR OBSTRUCTIONS TO VISIBILITY.

NVZ001-003-004-210000-
WESTERN NEVADA

CITY           SKY/WX    TMP DP  RH WIND       PRES   REMARKS
RENO           PTSUNNY   63  40  42 W18G29    29.81R
CARSON CITY    CLOUDY    66  37  34 W17G26    29.82S
MINDEN         CLOUDY    64  37  36 W17       29.82R
FALLON         CLOUDY    73  34  23 W17G26    29.72S
LOVELOCK       CLOUDY    68  35  29 W30G39    29.71F
HAWTHORNE      SUNNY     81  32  17 W21G32    29.70F
$$

NVZ002-CAZ072-073-210000-
NORTHERN AND CENTRAL SIERRA

CITY           SKY/WX    TMP DP  RH WIND       PRES   REMARKS
S. LAKE TAHOE  CLOUDY    54  39  57 S20G39    29.87F
TRUCKEE        CLOUDY    52  39  62 SW12G23   29.89F
SQUAW VLY 8000   N/A     39  37  93 SW20        N/A
SUSANVILLE     LGT RAIN  57  41  54 SW18G26   29.82S
BLUE CANYON    CLOUDY    50  48  93 S13G20    29.93F
MAMMOTH LAKES  FAIR      67  32  26 W13G24    29.95S
BRIDGEPORT     FAIR      62  34  35 SW24G38   29.86F
$$

NVZ030-031-036-210000-
NORTHERN NEVADA

CITY           SKY/WX    TMP DP  RH WIND       PRES   REMARKS
ELKO           CLOUDY    66  28  24 W17       29.74F
WINNEMUCCA     CLOUDY    67  30  25 W17       29.73F
WENDOVER       CLOUDY    72  30  21 E14       29.67F
$$

NVZ035-037-210000-
CENTRAL NEVADA

CITY           SKY/WX    TMP DP  RH WIND       PRES   REMARKS
ELY            SUNNY     74  28  18 SW23G38   29.79F
EUREKA           N/A     76  30  18 W20G28    29.76F
$$

NVZ013-014-210000-
SOUTH CENTRAL NEVADA

CITY           SKY/WX    TMP DP  RH WIND       PRES   REMARKS
TONOPAH        SUNNY     80  32  17 SW14G26   29.78F
$$

NVZ017-020-022-210000-
SOUTHERN NEVADA

CITY           SKY/WX    TMP DP  RH WIND       PRES   REMARKS
LAS VEGAS      SUNNY     91  38  15 SW13G23   29.66F
N. LAS VEGAS   SUNNY     91  34  13 SW21      29.66F
NELLIS AFB     SUNNY     92  38  15 S17G31    29.64F
HENDERSON      SUNNY     90  36  14 S21       29.70F
MERCURY        SUNNY     84  38  19 S20G29    29.73F
$$



USA.gov is the U.S. government's official web portal to all federal, state and local government web resources and services.